Location: Firnhaberau
(48.4049°N, 10.8963°E)
Time: 18:33:18
(UTC+00:00)

STARLINK-1288 - Pass Details

Date: 07 June 2020
Orbit: 549 x 550 km, 53.0° (Epoch: 09 July)

Event Time Altitude Azimuth Distance (km) Brightness Sun altitude
Exits shadow 01:34:35 19° 224° (SW) 1,352 5.0 -12.3°
Maximum altitude 01:37:27 62° 148° (SSE) 620 3.7 -12.0°
Drops below altitude 10° 01:41:33 10° 67° (ENE) 1,827 7.2 -11.7°
Sets 01:43:49 0° 65° (ENE) 2,724 8.3 -11.4°
